Location: Newark
(36.8464°N, 25.6817°E)
Time: 15:44:25
(UTC+00:00)

OTV 5 (USA 277) - Visible Passes

Search period start: 19 October 2019 00:00
Search period end: 29 October 2019 00:00
Orbit: 310 x 324 km, 54.5° (Epoch: 17 October)

Date Brightness Start Highest point End Pass type
(mag) Time Alt. Az. Time Alt. Az. Time Alt. Az.
19 Oct ? 03:19:31 11° NNW 03:21:43 25° NE 03:24:04 10° E visible
20 Oct ? 03:34:07 14° NW 03:36:19 81° NE 03:39:03 10° SE visible
21 Oct ? 02:17:56 12° ENE 02:17:56 12° ENE 02:18:20 10° E visible
21 Oct ? 03:48:52 13° WNW 03:50:47 27° SW 03:53:09 10° S visible
22 Oct ? 02:32:49 18° ESE 02:32:49 18° ESE 02:33:46 10° ESE visible
23 Oct ? 02:47:49 14° SSE 02:47:49 14° SSE 02:48:20 10° SSE visible
26 Oct ? 16:36:52 10° S 16:38:20 19° SSE 16:38:20 19° SSE visible
27 Oct ? 16:50:43 10° SW 16:53:07 64° S 16:53:07 64° S visible
28 Oct ? 17:05:30 10° WSW 17:07:46 31° NW 17:07:46 31° NW visible
